Regional Weather Roundup
Issued by NWS Green Bay, WI

Home | Current Version | Previous Version | Text Only | Print | Product List | Glossary On
Versions: 1 2 3 4 5 6 7 8 9 10 11 12 13 14 15 16 17 18 19 20 21 22 23 24 25 26 27 28 29 30 31 32 33 34 35 36 37 38 39 40 41 42 43 44 45 46 47 48 49 50
000
ASUS43 KGRB 240610
RWRGRB

NORTH-CENTRAL AND NORTHEAST WISCONSIN REGIONAL WEATHER ROUNDUP
NATIONAL WEATHER SERVICE GREEN BAY WI
1200 AM CST MON NOV 24 2014

WIZ005-009-010>012-018-019-240700-
NORTH CENTRAL WISCONSIN

CITY           SKY/WX    TMP DP  RH WIND       PRES   REMARKS
IRONWOOD       CLOUDY    37  37 100 NW7       29.18F VSB 1/4
MANITOWISH WTR DRIZZLE   40  40 100 N3        29.17F
ARBOR VITAE    RAIN      39  38  97 CALM      29.16F VSB 3/4
EAGLE RIVER    LGT RAIN  38  38 100 CALM      29.16F VSB 1/4
LAND O LAKES   LGT RAIN  38  38 100 CALM      29.17F VSB 3/4
RHINELANDER    LGT RAIN  37  37 100 CALM      29.16F VSB 1/4
PHILLIPS       DRIZZLE   40  40 100 N3        29.16F
ANTIGO         RAIN      37  37 100 N3        29.14F VSB 1/2
TOMAHAWK       RAIN      37  37  97 CALM      29.16F VSB 1/4
MERRILL        DRZL/FOG  40  40 100 NE3       29.15F VSB 1/2
$$

WIZ013-073-240700-
NORTHEAST WISCONSIN

CITY           SKY/WX    TMP DP  RH WIND       PRES   REMARKS
IRON MOUNTAIN  LGT RAIN  36  36 100 N6        29.15F VSB 1/2
MARINETTE      CLOUDY    43  41  93 N5        29.13F VSB 3/4
OCONTO         CLOUDY    41  41 100 CALM      29.13F VSB 3/4
$$

WIZ017-030-035>037-045-240700-
CENTRAL WISCONSIN

CITY           SKY/WX    TMP DP  RH WIND       PRES   REMARKS
MEDFORD        LGT RAIN  40  40 100 CALM      29.14F VSB 1/2
WAUSAU         LGT RAIN  41  41 100 CALM      29.12F VSB 1/2
MOSINEE        DRZL/FOG  41  41 100 NE3       29.16F VSB 1/2
MARSHFIELD     FOG       43  42  97 E3        29.14F VSB 1/4
WISC RAPIDS    LGT RAIN  43  41  93 CALM      29.15F VSB 3/4
STEVENS POINT  LGT RAIN  41  41 100 CALM      29.14F VSB 3/4
WAUPACA        RAIN      44  43  96 NW3       29.13F VSB 3/4
SHAWANO        DRZL/FOG  41  40  95 CALM      29.14F VSB 1/4
CLINTONVILLE   LGT RAIN  41  41 100 N3        29.13F VSB 1/2
$$

WIZ038-039-048-051-240700-
FOX VALLEY

CITY           SKY/WX    TMP DP  RH WIND       PRES   REMARKS
NWS GREEN BAY  LGT RAIN  44  43  96 N3        29.12F VSB 1/2
APPLETON       DRZL/FOG  43  43 100 NW6       29.13F VSB 1/2
OSHKOSH        LGT RAIN  44  42  93 NW5       29.11F VSB 3/4
FOND DU LAC    LGT RAIN  44  42  93 N3        29.10F VSB 1/2
$$

WIZ022-050-052-240700-
EAST CENTRAL WISCONSIN

CITY           SKY/WX    TMP DP  RH WIND       PRES   REMARKS
STURGEON BAY   CLOUDY    46  45  93 CALM      29.13F VSB 1/2
MANITOWOC      LGT RAIN  43  43 100 N3        29.11F VSB 3/4
SHEBOYGAN      LGT RAIN  43  43 100 N6        29.10F VSB 3/4
$$

LMZ563-521-522-541>543-240700-
LAKESHORE

STATION/POSITION TIME  TEMP    WIND        PRES    VSBY  WAVE
                       AIR SEA DIR/SP/G                  HT/PER
                 (UTC) (F)     (DEG/KT/KT) (MB)    (MI)  (FT/S)
SHEBOYGAN LKSHOR 0600   46 39  340/  3/  3  985.7F
KEWAUNEE LKSHORE 0600   44      30/  1/  3  986.0F
NORTHPORT PIER   0600   42      80/  2/  5  987.1F
N MID LAKE BUOY  0600   44 42   90/ 10/ 12  987.3F         3/ 6
SISTER BAY LKSHO 0500             CALM       N/A
CHAMBERS ISLAND  0600   42     350/  7/  7  987.8F
MENOMINEE LKSHOR 0600   38     330/  5/  9  988.0F
$$



USA.gov is the U.S. government's official web portal to all federal, state and local government web resources and services.